Location: USNO
(38.9242°N, 77.0663°W)
Time: 08:25:25
(UTC-04:00)

Vanguard 2 Rocket - All Passes

Search period start: 24 June 2018 00:00
Search period end: 04 July 2018 00:00
Orbit: 553 x 3328 km, 32.9° (Epoch: 23 June)

Date Brightness Start Highest point End Pass type
(mag) Time Alt. Az. Time Alt. Az. Time Alt. Az.
24 Jun - 07:44:04 10° S 07:57:45 28° SE 08:12:50 10° E daylight
24 Jun - 09:55:18 10° SW 10:13:58 55° SSE 10:31:35 10° E daylight
24 Jun - 12:11:29 10° WSW 12:31:51 71° S 12:46:57 10° E daylight
24 Jun - 14:30:25 10° W 14:48:53 62° SSW 15:00:21 10° ESE daylight
24 Jun - 16:50:42 10° W 17:02:56 30° SW 17:10:54 10° SSE daylight
25 Jun - 06:46:54 10° SSE 06:57:06 19° SE 07:08:36 10° E daylight
25 Jun - 08:55:14 10° SW 09:12:16 46° SSE 09:30:12 10° E daylight
25 Jun - 11:09:48 10° WSW 11:29:51 68° SSE 11:46:41 10° E daylight
25 Jun - 13:27:49 10° W 13:47:41 69° S 14:01:01 10° ESE daylight
25 Jun - 15:47:32 10° W 16:03:07 43° SSW 16:12:53 10° SSE daylight
25 Jun - 18:11:57 10° WSW 18:15:17 11° SW 18:18:13 10° SW daylight
26 Jun - 05:55:55 10° SE 05:56:53 10° SE 05:57:51 10° ESE daylight
26 Jun - 07:55:59 10° SSW 08:10:56 37° SE 08:28:07 10° E daylight
26 Jun - 10:08:45 10° WSW 10:27:46 63° SSE 10:45:56 10° E daylight
26 Jun - 12:25:33 10° W 12:45:59 72° S 13:01:12 10° ESE daylight
26 Jun - 14:44:38 10° W 15:02:42 54° SSW 15:14:13 10° SE daylight
26 Jun - 17:05:58 10° W 17:16:06 22° SW 17:23:22 10° S daylight
27 Jun - 06:57:41 10° S 07:10:06 27° SE 07:25:03 10° E daylight
27 Jun - 09:08:22 10° SW 09:25:50 56° SSE 09:44:40 10° E daylight
27 Jun - 11:23:46 10° WSW 11:43:55 72° S 12:00:57 10° E daylight
27 Jun - 13:42:00 10° W 14:01:39 63° SSW 14:15:02 10° ESE daylight
27 Jun - 16:02:09 10° W 16:16:28 33° SW 16:26:01 10° SSE daylight
28 Jun - 06:00:52 10° SSE 06:09:47 18° SE 06:20:21 10° E daylight
28 Jun - 08:08:42 10° SW 08:24:16 47° SSE 08:42:49 10° E daylight
28 Jun - 10:22:32 10° WSW 10:41:42 69° SSE 11:00:13 10° E daylight
28 Jun - 12:39:43 10° W 13:00:02 70° S 13:15:21 10° ESE daylight
28 Jun - 14:58:59 10° W 15:16:15 45° SSW 15:27:45 10° SE daylight
28 Jun - 17:22:44 10° W 17:29:04 14° SW 17:34:17 10° SSW daylight
29 Jun - 07:09:47 10° SSW 07:23:12 36° SE 07:40:16 10° E daylight
29 Jun - 09:21:55 10° WSW 09:39:34 64° SSE 09:58:59 10° E daylight
29 Jun - 11:37:53 10° W 11:58:00 73° S 12:15:10 10° ESE daylight
29 Jun - 13:56:14 10° W 14:15:25 56° SSW 14:28:49 10° SE daylight
29 Jun - 16:17:20 10° W 16:29:34 24° SW 16:38:26 10° S daylight
30 Jun - 06:11:48 10° S 06:22:42 26° SE 06:36:48 10° E daylight
30 Jun - 08:21:57 10° SW 08:37:46 56° SSE 08:57:14 10° E daylight
30 Jun - 10:36:33 10° WSW 10:55:44 73° S 11:14:27 10° E daylight
30 Jun - 12:53:55 10° W 13:13:59 64° SSW 13:29:19 10° ESE daylight
30 Jun - 15:13:34 10° W 15:29:33 35° SW 15:40:48 10° SSE daylight
01 Jul - 05:15:24 10° SSE 05:22:44 16° SE 05:31:42 10° E visible
01 Jul - 07:22:39 10° SW 07:36:28 46° SSE 07:54:55 10° E daylight
01 Jul - 09:35:47 10° WSW 09:53:29 70° SSE 10:13:14 10° E daylight
01 Jul - 11:52:04 10° W 12:12:03 70° S 12:29:15 10° ESE daylight
01 Jul - 14:10:35 10° W 14:28:56 46° SSW 14:42:16 10° SE daylight
01 Jul - 16:33:48 10° W 16:42:29 16° SW 16:49:31 10° SSW daylight
02 Jul - 06:24:03 10° SSW 06:35:46 35° SE 06:51:59 10° E daylight
02 Jul - 08:35:37 10° WSW 08:51:30 64° SSE 09:11:30 10° E daylight
02 Jul - 10:50:42 10° W 11:09:49 73° S 11:28:37 10° ESE daylight
02 Jul - 13:08:11 10° W 13:27:44 56° SSW 13:43:01 10° SE daylight
02 Jul - 15:28:44 10° W 15:42:37 26° SW 15:53:08 10° S daylight
03 Jul - 05:26:22 10° S 05:35:39 24° SE 05:48:14 10° E daylight
03 Jul - 07:36:01 10° SW 07:49:58 55° SSE 08:09:17 10° E daylight
03 Jul - 09:49:51 10° WSW 10:07:31 73° S 10:27:25 10° E daylight
03 Jul - 12:06:17 10° W 12:25:58 64° SSW 12:43:09 10° ESE daylight
03 Jul - 14:25:12 10° W 14:42:13 37° SW 14:55:12 10° SSE daylight
